When you browse on this site, cookies collect data to enhance your experience and personalize the content and advertising you see.
Visit our Privacy Policy to learn more. By continuing to use the site, you agree to this use of cookies and data.
  • In Österreich
  • Länderverzeichnis
  • Für 7 Tage
  • Wassertemperatur
  • Wetterkarte
  • News
  • Widgets
  • user-avatar
    Anmelden

    Stündliche Wetter Dolgaya Dubrova

    Heute, 23 Februar, Sonntag

    Zeit Temperatur Niederschläge Wind Luftdruck Luftfeuchtigkeit
    00:00 +3°C° 0 mm 7 m/S 747 mmHg 66%
    01:00 +3°C° 0 mm 7 m/S 747 mmHg 67%
    02:00 +4°C° 0 mm 7 m/S 745 mmHg 67%
    03:00 +4°C° 0.1 mm 7 m/S 745 mmHg 72%
    04:00 +4°C° 0.1 mm 7 m/S 744 mmHg 77%
    05:00 +4°C° 0.1 mm 7 m/S 744 mmHg 82%
    06:00 +4°C° 0.1 mm 7 m/S 744 mmHg 78%
    07:00 +4°C° 0.1 mm 7 m/S 744 mmHg 75%
    08:00 +3°C° 0.1 mm 7 m/S 744 mmHg 72%
    09:00 +4°C° 0.2 mm 8 m/S 744 mmHg 68%
    10:00 +4°C° 0.2 mm 8 m/S 744 mmHg 64%
    11:00 +3°C° 0.2 mm 9 m/S 744 mmHg 61%
    12:00 +5°C° 0.1 mm 8 m/S 743 mmHg 57%
    13:00 +5°C° 0.1 mm 8 m/S 743 mmHg 54%
    14:00 +5°C° 0.1 mm 8 m/S 743 mmHg 51%
    15:00 +5°C° 0 mm 7 m/S 743 mmHg 55%
    16:00 +4°C° 0 mm 6 m/S 742 mmHg 58%
    17:00 +5°C° 0 mm 4 m/S 742 mmHg 62%
    18:00 +4°C° 0.1 mm 4 m/S 741 mmHg 66%
    19:00 +4°C° 0.1 mm 4 m/S 741 mmHg 71%
    20:00 +4°C° 0.1 mm 4 m/S 741 mmHg 76%
    21:00 +3°C° 0.1 mm 3 m/S 739 mmHg 79%
    22:00 +3°C° 0.1 mm 3 m/S 738 mmHg 82%
    23:00 +3°C° 0.1 mm 3 m/S 737 mmHg 85%

    Morgen, 24 Februar, Montag

    Zeit Temperatur Niederschläge Wind Luftdruck Luftfeuchtigkeit
    00:00 +3°C° 0.6 mm 2 m/S 736 mmHg 89%
    01:00 +3°C° 0.6 mm 2 m/S 734 mmHg 93%
    02:00 +3°C° 0.6 mm 1 m/S 733 mmHg 96%
    03:00 +2°C° 0.5 mm 2 m/S 733 mmHg 95%
    04:00 +1°C° 0.5 mm 3 m/S 733 mmHg 94%
    05:00 +1°C° 0.5 mm 4 m/S 733 mmHg 93%
    06:00 0°C° 0 mm 5 m/S 734 mmHg 91%
    07:00 0°C° 0 mm 5 m/S 736 mmHg 89%
    08:00 0°C° 0 mm 5 m/S 737 mmHg 87%
    09:00 +1°C° 0.1 mm 6 m/S 738 mmHg 83%
    10:00 +1°C° 0.1 mm 6 m/S 739 mmHg 78%
    11:00 0°C° 0.1 mm 7 m/S 740 mmHg 74%
    12:00 0°C° 0 mm 7 m/S 740 mmHg 73%
    13:00 +2°C° 0 mm 7 m/S 741 mmHg 73%
    14:00 +2°C° 0 mm 7 m/S 742 mmHg 73%
    15:00 +2°C° 0 mm 6 m/S 742 mmHg 70%
    16:00 +2°C° 0 mm 6 m/S 743 mmHg 67%
    17:00 +2°C° 0 mm 6 m/S 743 mmHg 63%
    18:00 +1°C° 0 mm 5 m/S 744 mmHg 66%
    19:00 0°C° 0 mm 4 m/S 745 mmHg 69%
    20:00 0°C° 0 mm 4 m/S 746 mmHg 72%
    21:00 0°C° 0 mm 3 m/S 746 mmHg 75%
    22:00 0°C° 0 mm 3 m/S 746 mmHg 77%
    23:00 -1°C° 0 mm 2 m/S 747 mmHg 80%

    übermorgen, 25 Februar, Dienstag

    Zeit Temperatur Niederschläge Wind Luftdruck Luftfeuchtigkeit
    00:00 -1°C° 0 mm 2 m/S 747 mmHg 82%
    01:00 -1°C° 0 mm 2 m/S 747 mmHg 84%
    02:00 -1°C° 0 mm 2 m/S 746 mmHg 86%
    03:00 -1°C° 0 mm 2 m/S 746 mmHg 86%
    04:00 -1°C° 0 mm 2 m/S 745 mmHg 86%
    05:00 -1°C° 0 mm 3 m/S 745 mmHg 87%
    06:00 0°C° 0 mm 3 m/S 744 mmHg 86%
    07:00 0°C° 0 mm 3 m/S 744 mmHg 85%
    08:00 0°C° 0 mm 3 m/S 743 mmHg 84%
    09:00 -1°C° 0.3 mm 4 m/S 743 mmHg 88%
    10:00 -1°C° 0.3 mm 4 m/S 742 mmHg 91%
    11:00 -1°C° 0.3 mm 5 m/S 741 mmHg 95%
    12:00 -1°C° 0.4 mm 4 m/S 740 mmHg 95%
    13:00 -1°C° 0.4 mm 4 m/S 739 mmHg 96%
    14:00 -1°C° 0.4 mm 4 m/S 739 mmHg 96%
    15:00 0°C° 0.3 mm 4 m/S 738 mmHg 95%
    16:00 +3°C° 0.3 mm 4 m/S 738 mmHg 94%
    17:00 +4°C° 0.3 mm 4 m/S 737 mmHg 92%
    18:00 +3°C° 0.1 mm 5 m/S 737 mmHg 92%
    19:00 +3°C° 0.1 mm 5 m/S 737 mmHg 91%
    20:00 +3°C° 0.1 mm 5 m/S 737 mmHg 91%
    21:00 +3°C° 0.2 mm 5 m/S 737 mmHg 91%
    22:00 +4°C° 0.2 mm 4 m/S 737 mmHg 91%
    23:00 +4°C° 0.2 mm 4 m/S 737 mmHg 91%

    26 Februar, Mittwoch

    Zeit Temperatur Niederschläge Wind Luftdruck Luftfeuchtigkeit
    00:00 +4°C° 0.3 mm 4 m/S 737 mmHg 91%
    01:00 +4°C° 0.3 mm 4 m/S 737 mmHg 92%
    02:00 +4°C° 0.3 mm 4 m/S 737 mmHg 92%
    03:00 +3°C° 0.1 mm 3 m/S 737 mmHg 88%
    04:00 +3°C° 0.1 mm 3 m/S 736 mmHg 84%
    05:00 +2°C° 0.1 mm 3 m/S 736 mmHg 81%
    06:00 +2°C° 0 mm 3 m/S 736 mmHg 82%
    07:00 +2°C° 0 mm 3 m/S 736 mmHg 83%
    08:00 +2°C° 0 mm 3 m/S 736 mmHg 85%
    09:00 +3°C° 0 mm 3 m/S 737 mmHg 78%
    10:00 +4°C° 0 mm 3 m/S 737 mmHg 71%
    11:00 +5°C° 0 mm 4 m/S 737 mmHg 64%
    12:00 +5°C° 0 mm 3 m/S 737 mmHg 61%
    13:00 +5°C° 0 mm 3 m/S 737 mmHg 57%
    14:00 +7°C° 0 mm 3 m/S 736 mmHg 54%
    15:00 +6°C° 0 mm 2 m/S 736 mmHg 57%
    16:00 +6°C° 0 mm 2 m/S 736 mmHg 61%
    17:00 +6°C° 0 mm 1 m/S 736 mmHg 65%
    18:00 +6°C° 0 mm 1 m/S 736 mmHg 68%
    19:00 +5°C° 0 mm 1 m/S 737 mmHg 71%
    20:00 +4°C° 0 mm 1 m/S 737 mmHg 73%
    21:00 +4°C° 0 mm 1 m/S 737 mmHg 75%
    22:00 +4°C° 0 mm 1 m/S 737 mmHg 77%
    23:00 +3°C° 0 mm 1 m/S 737 mmHg 79%

    27 Februar, Donnerstag

    Zeit Temperatur Niederschläge Wind Luftdruck Luftfeuchtigkeit
    00:00 +3°C° 0 mm 1 m/S 737 mmHg 80%
    01:00 +3°C° 0 mm 1 m/S 737 mmHg 82%
    02:00 +2°C° 0 mm 0 m/S 737 mmHg 84%
    03:00 +3°C° 0 mm 1 m/S 737 mmHg 84%
    04:00 +3°C° 0 mm 1 m/S 737 mmHg 84%
    05:00 +3°C° 0 mm 1 m/S 736 mmHg 84%
    06:00 +3°C° 0 mm 1 m/S 737 mmHg 85%
    07:00 +2°C° 0 mm 0 m/S 737 mmHg 86%
    08:00 +2°C° 0 mm 0 m/S 737 mmHg 86%
    09:00 +4°C° 0 mm 1 m/S 737 mmHg 81%
    10:00 +5°C° 0 mm 1 m/S 737 mmHg 76%
    11:00 +5°C° 0 mm 2 m/S 738 mmHg 71%
    12:00 +6°C° 0 mm 2 m/S 738 mmHg 68%
    13:00 +5°C° 0 mm 3 m/S 738 mmHg 66%
    14:00 +5°C° 0 mm 3 m/S 738 mmHg 64%
    15:00 +5°C° 0 mm 3 m/S 738 mmHg 66%
    16:00 +4°C° 0 mm 3 m/S 739 mmHg 67%
    17:00 +3°C° 0 mm 4 m/S 739 mmHg 68%
    18:00 +3°C° 0 mm 3 m/S 739 mmHg 71%
    19:00 +2°C° 0 mm 3 m/S 740 mmHg 74%
    20:00 +1°C° 0 mm 3 m/S 740 mmHg 76%
    21:00 +2°C° 0 mm 2 m/S 741 mmHg 79%
    22:00 +1°C° 0 mm 2 m/S 741 mmHg 81%
    23:00 +1°C° 0 mm 2 m/S 741 mmHg 83%

    28 Februar, Freitag

    Zeit Temperatur Niederschläge Wind Luftdruck Luftfeuchtigkeit
    00:00 +1°C° 0 mm 2 m/S 741 mmHg 85%
    01:00 -1°C° 0 mm 2 m/S 741 mmHg 88%
    02:00 -1°C° 0 mm 2 m/S 741 mmHg 90%
    03:00 -2°C° 0 mm 2 m/S 741 mmHg 90%
    04:00 -2°C° 0 mm 2 m/S 741 mmHg 90%
    05:00 -2°C° 0 mm 2 m/S 741 mmHg 91%
    06:00 -2°C° 0 mm 2 m/S 741 mmHg 90%
    07:00 -2°C° 0 mm 2 m/S 741 mmHg 89%
    08:00 -2°C° 0 mm 2 m/S 741 mmHg 87%
    09:00 +1°C° 0 mm 2 m/S 741 mmHg 80%
    10:00 +2°C° 0 mm 2 m/S 741 mmHg 72%
    11:00 +2°C° 0 mm 3 m/S 741 mmHg 64%
    12:00 +3°C° 0 mm 4 m/S 740 mmHg 59%
    13:00 +4°C° 0 mm 4 m/S 739 mmHg 55%
    14:00 +3°C° 0 mm 5 m/S 739 mmHg 50%
    15:00 +3°C° 0 mm 5 m/S 738 mmHg 53%
    16:00 +4°C° 0 mm 4 m/S 738 mmHg 56%
    17:00 +3°C° 0 mm 4 m/S 738 mmHg 59%
    18:00 +2°C° 0.2 mm 5 m/S 737 mmHg 68%
    19:00 +2°C° 0.2 mm 5 m/S 737 mmHg 76%
    20:00 +1°C° 0.2 mm 6 m/S 737 mmHg 85%
    21:00 +1°C° 0 mm 5 m/S 737 mmHg 85%
    22:00 +1°C° 0 mm 5 m/S 737 mmHg 84%
    23:00 0°C° 0 mm 5 m/S 736 mmHg 84%
    Mehr zeigen